FDX251 PHNL-KSFO

Flight info

Callsign FDX251
Flight time N/A
Altitude 35000
Route MKK5 KOLEA CLUTS R465 CINNY PIRAT3
Aircraft B77L/H-SDE1E2E3FGHIJ2J3J4J5M1RWXY/LB1D1

Departure

Time N/A
Airport Daniel K. Inouye International Airport (PHNL)

Arrival

Time 2026-05-08 06:13
Airport San Francisco International Airport (KSFO)
Time Latitude Longitude Altitude Speed Heading
2026-05-08 05:47 36.48458 -124.28182 35901 ft 461 kts 47°
2026-05-08 05:47 36.56420 -124.15496 32505 ft 470 kts 48°
2026-05-08 05:48 36.64544 -124.02490 29075 ft 473 kts 49°
2026-05-08 05:48 36.72523 -123.89661 26387 ft 460 kts 50°
2026-05-08 05:48 36.76471 -123.83300 25186 ft 454 kts 50°
2026-05-08 05:48 36.78401 -123.80186 24596 ft 451 kts 50°
2026-05-08 05:49 36.80327 -123.77077 23992 ft 449 kts 50°
2026-05-08 05:49 36.82218 -123.74021 23323 ft 448 kts 50°
2026-05-08 05:49 36.84110 -123.70957 22680 ft 445 kts 50°
2026-05-08 05:49 36.86008 -123.67883 22066 ft 442 kts 50°
2026-05-08 05:50 36.87879 -123.64850 21610 ft 436 kts 51°
2026-05-08 05:50 36.89685 -123.61916 21460 ft 423 kts 50°
2026-05-08 05:50 36.91461 -123.59032 21277 ft 411 kts 51°
2026-05-08 05:50 36.93170 -123.56257 21058 ft 402 kts 51°
2026-05-08 05:51 36.94875 -123.53482 20586 ft 400 kts 51°
2026-05-08 05:51 36.96549 -123.50756 20157 ft 398 kts 51°
2026-05-08 05:51 36.98243 -123.47998 19643 ft 397 kts 51°
2026-05-08 05:51 36.99882 -123.45323 19123 ft 383 kts 51°
2026-05-08 05:52 37.01477 -123.42716 18685 ft 369 kts 51°
2026-05-08 05:52 37.03022 -123.40190 18254 ft 365 kts 51°
2026-05-08 05:52 37.04607 -123.37603 17818 ft 379 kts 51°
2026-05-08 05:52 37.06203 -123.34994 17358 ft 382 kts 51°
2026-05-08 05:53 37.07829 -123.32332 16903 ft 381 kts 52°
2026-05-08 05:53 37.09421 -123.29723 16463 ft 378 kts 52°
2026-05-08 05:53 37.11020 -123.27099 16043 ft 374 kts 52°
2026-05-08 05:53 37.12588 -123.24524 15588 ft 371 kts 52°
2026-05-08 05:54 37.14139 -123.21976 15188 ft 369 kts 52°
2026-05-08 05:54 37.15692 -123.19422 14778 ft 366 kts 52°
2026-05-08 05:54 37.17233 -123.16888 14354 ft 363 kts 52°
2026-05-08 05:54 37.18744 -123.14393 13957 ft 359 kts 54°
2026-05-08 05:55 37.19906 -123.11682 13577 ft 346 kts 72°
2026-05-08 05:55 37.20573 -123.08803 13113 ft 340 kts 75°
2026-05-08 05:55 37.21198 -123.05979 12712 ft 338 kts 75°
2026-05-08 05:55 37.21838 -123.03138 12321 ft 336 kts 74°
2026-05-08 05:56 37.22485 -123.00322 11930 ft 333 kts 73°
2026-05-08 05:56 37.23127 -122.97560 11550 ft 331 kts 73°
2026-05-08 05:56 37.23779 -122.94783 11166 ft 328 kts 73°
2026-05-08 05:56 37.24417 -122.92070 10803 ft 326 kts 73°
2026-05-08 05:57 37.25056 -122.89354 10432 ft 324 kts 73°
2026-05-08 05:57 37.25688 -122.86666 10091 ft 313 kts 73°
2026-05-08 05:57 37.26279 -122.84146 10015 ft 297 kts 73°
2026-05-08 05:57 37.26876 -122.81597 9860 ft 309 kts 73°
2026-05-08 05:58 37.27477 -122.79030 9760 ft 309 kts 73°
2026-05-08 05:58 37.28082 -122.76439 9667 ft 307 kts 73°
2026-05-08 05:58 37.28682 -122.73870 9578 ft 305 kts 73°
2026-05-08 05:58 37.29281 -122.71304 9476 ft 304 kts 73°
2026-05-08 05:59 37.29871 -122.68773 9398 ft 305 kts 73°
2026-05-08 05:59 37.30467 -122.66210 9307 ft 304 kts 73°
2026-05-08 05:59 37.31056 -122.63677 9099 ft 305 kts 73°
2026-05-08 05:59 37.31652 -122.61106 8829 ft 306 kts 73°
2026-05-08 06:00 37.32250 -122.58532 8557 ft 306 kts 73°
2026-05-08 06:00 37.32846 -122.55955 8296 ft 305 kts 73°
2026-05-08 06:00 37.33430 -122.53434 8093 ft 297 kts 73°
2026-05-08 06:00 37.34000 -122.50967 8049 ft 289 kts 73°
2026-05-08 06:01 37.34559 -122.48546 8020 ft 292 kts 73°
2026-05-08 06:01 37.35126 -122.46090 8013 ft 291 kts 73°
2026-05-08 06:01 37.35682 -122.43677 8008 ft 289 kts 73°
2026-05-08 06:01 37.36243 -122.41236 8007 ft 288 kts 73°
2026-05-08 06:02 37.36802 -122.38805 8018 ft 288 kts 73°
2026-05-08 06:02 37.37354 -122.36405 8009 ft 290 kts 73°
2026-05-08 06:02 37.37917 -122.33953 8009 ft 289 kts 73°
2026-05-08 06:02 37.38463 -122.31573 7993 ft 281 kts 73°
2026-05-08 06:03 37.38995 -122.29251 7991 ft 270 kts 73°
2026-05-08 06:03 37.39522 -122.26991 8003 ft 271 kts 73°
2026-05-08 06:03 37.40079 -122.24690 7919 ft 274 kts 73°
2026-05-08 06:03 37.40642 -122.22363 7630 ft 280 kts 73°
2026-05-08 06:04 37.41207 -122.20031 7160 ft 281 kts 73°
2026-05-08 06:04 37.41769 -122.17704 6648 ft 273 kts 73°
2026-05-08 06:04 37.42288 -122.15431 6110 ft 266 kts 80°
2026-05-08 06:04 37.42208 -122.13166 5609 ft 262 kts 109°
2026-05-08 06:05 37.41475 -122.11076 5233 ft 259 kts 117°
2026-05-08 06:05 37.40763 -122.08999 4799 ft 258 kts 102°
2026-05-08 06:05 37.40807 -122.06750 4352 ft 258 kts 71°
2026-05-08 06:05 37.41702 -122.04857 3955 ft 254 kts 42°
2026-05-08 06:06 37.43063 -122.03488 3573 ft 250 kts 33°
2026-05-08 06:06 37.44534 -122.02340 3152 ft 244 kts 18°
2026-05-08 06:06 37.46137 -122.02126 2998 ft 224 kts 345°
2026-05-08 06:06 37.47440 -122.03035 2997 ft 214 kts 308°
2026-05-08 06:07 37.48182 -122.04649 3008 ft 214 kts 295°
2026-05-08 06:07 37.48833 -122.06340 3008 ft 219 kts 296°
2026-05-08 06:07 37.49525 -122.08046 2999 ft 217 kts 297°
2026-05-08 06:07 37.50226 -122.09734 2996 ft 215 kts 297°
2026-05-08 06:08 37.50916 -122.11382 2992 ft 213 kts 297°
2026-05-08 06:08 37.51609 -122.13035 3002 ft 211 kts 297°
2026-05-08 06:08 37.52295 -122.14669 2998 ft 208 kts 297°
2026-05-08 06:08 37.52953 -122.16239 2996 ft 201 kts 297°
2026-05-08 06:09 37.53605 -122.17790 3049 ft 203 kts 297°
2026-05-08 06:09 37.54277 -122.19388 2810 ft 204 kts 297°
2026-05-08 06:09 37.54928 -122.20943 2556 ft 195 kts 297°
2026-05-08 06:09 37.55546 -122.22417 2328 ft 191 kts 297°
2026-05-08 06:10 37.56150 -122.23859 2085 ft 181 kts 297°
2026-05-08 06:10 37.56719 -122.25214 1870 ft 170 kts 297°
2026-05-08 06:10 37.57262 -122.26511 1654 ft 167 kts 297°
2026-05-08 06:10 37.57795 -122.27783 1441 ft 156 kts 297°
2026-05-08 06:11 37.58285 -122.28951 1233 ft 141 kts 297°
2026-05-08 06:11 37.58721 -122.29993 1087 ft 135 kts 296°
2026-05-08 06:11 37.59161 -122.31042 874 ft 135 kts 296°
2026-05-08 06:11 37.59450 -122.31729 759 ft 133 kts 296°
2026-05-08 06:12 37.60015 -122.33082 533 ft 129 kts 295°
2026-05-08 06:12 37.60296 -122.33748 418 ft 129 kts 296°
2026-05-08 06:12 37.60715 -122.34758 264 ft 129 kts 295°
2026-05-08 06:12 37.61272 -122.36078 39 ft 130 kts 295°
2026-05-08 06:13 37.61536 -122.36719 28 ft 114 kts 298°
2026-05-08 06:13 37.61855 -122.37469 26 ft 79 kts 297°
2026-05-08 06:13 37.62061 -122.37945 27 ft 48 kts 300°
2026-05-08 06:13 37.62160 -122.38278 29 ft 30 kts 246°
2026-05-08 06:14 37.62061 -122.38416 27 ft 17 kts 280°
2026-05-08 06:14 37.62124 -122.38573 25 ft 26 kts 298°
2026-05-08 06:14 37.62228 -122.38823 20 ft 34 kts 297°